Malmstrom AFB, MT

4:28 AM MDT on October 18, 2017 (GMT -0600)
Malmstrom AFB

Weather History for KGFA - March, 2013

Change the Weather History Date:

Wednesday, March 6, 2013

  Actual Average (KGTF) Record (KGTF)
Temperature  
Mean Temperature 22 °F -  
Max Temperature 28 °F 43 °F 67 °F (1987)
Min Temperature 17 °F 21 °F -24 °F (1951)
Degree Days  
Heating Degree Days 42    
Moisture  
Dew Point 18 °F    
Average Humidity 84    
Maximum Humidity 93    
Minimum Humidity 72    
Precipitation  
Precipitation 0.00 in - - ()
Sea Level Pressure  
Sea Level Pressure 29.94 in    
Wind  
Wind Speed 3 mph (NNE)    
Max Wind Speed 8 mph    
Max Gust Speed -    
Visibility 10 miles    
Events Snow    
Averages and records for this station are not official NWS values.
T = Trace of Precipitation, MM = Missing Value Source: NWS Daily Summary

Daily Weather History Graph

Daily Weather History Graph

Search for Another Location

Airport or City:

Trip Planner

Search our weather history database for the weather conditions in past years. The results will help you decide how hot, cold, wet, or windy it might be!

Date:

Astronomy

Mar. 06, 2013 Rise Set
Actual Time 6:54 AM MST 6:17 PM MST
Civil Twilight 6:24 AM MST 6:48 PM MST
Nautical Twilight 5:48 AM MST 7:23 PM MST
Astronomical Twilight 5:12 AM MST 7:59 PM MST
Moon 3:24 AM MST (3/6) 12:46 PM MST (3/6)
Length of Visible Light 12h 24m
Length of Day
11h 22m
Waning Crescent, 29% of the Moon is Illuminated
Mar 6
Waning Crescent
Mar 11
New
Mar 19
First Quarter
Mar 27
Full
Apr 2
Last Quarter

Hourly Weather History & Observations

Time (MST) Temp. Windchill Dew Point Humidity Pressure Visibility Wind Dir Wind Speed Gust Speed Precip Events Conditions
12:56 AM 21.0 °F - 16.0 °F 81% 30.18 in 10.0 mi Calm Calm - N/A   Scattered Clouds
1:56 AM 19.9 °F - 16.0 °F 85% 30.16 in 10.0 mi Calm Calm - N/A   Clear
2:56 AM 19.0 °F - 16.0 °F 88% 30.15 in 10.0 mi Calm Calm - N/A   Clear
3:56 AM 19.0 °F 11.1 °F 16.0 °F 88% 30.12 in 10.0 mi NNE 5.8 mph - N/A   Clear
4:56 AM 19.0 °F 12.3 °F 16.0 °F 88% 30.12 in 10.0 mi NNE 4.6 mph - N/A   Partly Cloudy
5:56 AM 18.0 °F 11.1 °F 15.1 °F 88% 30.09 in 10.0 mi North 4.6 mph - N/A   Clear
6:11 AM 17.6 °F - 15.8 °F 93% 29.86 in 10.0 mi Calm Calm - N/A   Scattered Clouds
6:22 AM 17.6 °F 10.7 °F 15.8 °F 93% 29.85 in 10.0 mi NNE 4.6 mph - N/A   Mostly Cloudy
6:56 AM 17.1 °F 7.6 °F 15.1 °F 92% 30.08 in 10.0 mi North 6.9 mph - N/A   Mostly Cloudy
7:56 AM 17.1 °F 6.6 °F 15.1 °F 92% 30.06 in 9.0 mi NNE 8.1 mph - N/A   Overcast
9:56 AM 19.0 °F 13.9 °F 17.1 °F 92% 30.02 in 9.0 mi NNE 3.5 mph - N/A   Overcast
10:56 AM 19.9 °F 12.1 °F 17.1 °F 89% 29.98 in 10.0 mi North 5.8 mph - N/A   Overcast
11:24 AM 21.2 °F 14.9 °F 17.6 °F 86% 29.74 in 8.0 mi Variable 4.6 mph - 0.00 in Snow Light Snow
11:56 AM 21.9 °F 13.4 °F 18.0 °F 85% 29.99 in 10.0 mi Variable 6.9 mph - 0.00 in   Overcast
12:04 PM 21.2 °F - 17.6 °F 86% 29.75 in 10.0 mi Calm Calm - N/A   Overcast
12:19 PM 23.0 °F 15.8 °F 17.6 °F 80% 29.73 in 10.0 mi NNE 5.8 mph - N/A   Overcast
12:56 PM 24.1 °F 16.0 °F 19.0 °F 81% 29.94 in 10.0 mi ENE 6.9 mph - N/A   Overcast
1:31 PM 26.6 °F 20.0 °F 19.4 °F 74% 29.68 in 10.0 mi NNE 5.8 mph - N/A   Mostly Cloudy
1:56 PM 27.0 °F - 19.9 °F 75% 29.89 in 10.0 mi Calm Calm - N/A   Scattered Clouds
2:56 PM 27.0 °F 20.5 °F 19.9 °F 75% 29.90 in 10.0 mi North 5.8 mph - N/A   Overcast
3:56 PM 28.0 °F 24.2 °F 21.0 °F 75% 29.90 in 10.0 mi NNE 3.5 mph - N/A   Mostly Cloudy
4:56 PM 28.9 °F - 21.0 °F 72% 29.90 in 10.0 mi Calm Calm - N/A   Clear
5:56 PM 27.0 °F 20.5 °F 19.9 °F 75% 29.91 in 10.0 mi NNE 5.8 mph - N/A   Overcast
6:56 PM 26.1 °F 19.4 °F 21.0 °F 81% 29.91 in 10.0 mi North 5.8 mph - N/A   Overcast
7:56 PM 26.1 °F 19.4 °F 19.9 °F 78% 29.92 in 10.0 mi NNW 5.8 mph - N/A   Clear
9:56 PM 23.0 °F 15.8 °F 19.9 °F 88% 29.99 in 10.0 mi ESE 5.8 mph - N/A   Overcast
10:19 PM 23.0 °F - 19.4 °F 86% 29.75 in 10.0 mi Calm Calm - N/A   Overcast
10:56 PM 24.1 °F 17.0 °F 19.9 °F 84% 29.96 in 10.0 mi North 5.8 mph - N/A   Mostly Cloudy
11:13 PM 24.8 °F - 19.4 °F 80% 29.75 in 10.0 mi Calm Calm - N/A   Overcast
11:56 PM 24.1 °F - 21.0 °F 88% 29.99 in 10.0 mi Calm Calm - N/A   Overcast